Appleton, MN

12:28 AM CDT on August 29, 2016 (GMT -0500)
Appleton Municipal

Weather History for KAQP - May, 2012

Change the Weather History Date:

Tuesday, May 29, 2012

  Actual Average Record
Temperature  
Mean Temperature 52 °F -  
Max Temperature 57 °F 69 °F 89 °F (1999)
Min Temperature 48 °F 48 °F 44 °F (2005)
Degree Days  
Heating Degree Days 12    
Growing Degree Days 2 (Base 50)    
Moisture  
Dew Point 43 °F    
Average Humidity 68    
Maximum Humidity 88    
Minimum Humidity 54    
Precipitation  
Precipitation 0.04 in - - ()
Sea Level Pressure  
Sea Level Pressure 29.87 in    
Wind  
Wind Speed 14 mph (WNW)    
Max Wind Speed 23 mph    
Max Gust Speed 28 mph    
Visibility 10 miles    
Events Rain    
Averages and records for this station are not official NWS values.
T = Trace of Precipitation, MM = Missing Value Source: NWS Daily Summary

Daily Weather History Graph

Daily Weather History Graph

Search for Another Location

Airport or City:

Trip Planner

Search our weather history database for the weather conditions in past years. The results will help you decide how hot, cold, wet, or windy it might be!

Date:

Astronomy

May. 29, 2012 Rise Set
Actual Time 5:41 AM CDT 9:02 PM CDT
Civil Twilight 5:04 AM CDT 9:38 PM CDT
Nautical Twilight 4:17 AM CDT 10:26 PM CDT
Astronomical Twilight 3:18 AM CDT 11:26 PM CDT
Moon 2:17 PM CDT 1:53 AM CDT
Length of Visible Light 16h 33m
Length of Day
15h 21m
First Quarter, 59% of the Moon is Illuminated
May 29
First Quarter
Jun 4
Full
Jun 11
Last Quarter
Jun 19
New
Jun 26
First Quarter

Hourly Weather History & Observations

Time (CDT) Temp. Dew Point Humidity Pressure Visibility Wind Dir Wind Speed Gust Speed Precip Events Conditions
12:14 AM 53.6 °F 42.8 °F 67% 29.75 in 10.0 mi WSW 11.5 mph - N/A   Clear
12:34 AM 53.6 °F 41.0 °F 62% 29.75 in 10.0 mi WSW 13.8 mph - N/A   Clear
12:54 AM 53.6 °F 41.0 °F 62% 29.75 in 10.0 mi WSW 13.8 mph - N/A   Clear
1:15 AM 53.6 °F 41.0 °F 62% 29.75 in 10.0 mi WSW 12.7 mph - N/A   Clear
1:34 AM 53.6 °F 41.0 °F 62% 29.75 in 10.0 mi WSW 12.7 mph - N/A   Clear
1:55 AM 53.6 °F 41.0 °F 62% 29.75 in 10.0 mi WSW 13.8 mph 18.4 mph N/A   Clear
2:14 AM 51.8 °F 42.8 °F 71% 29.75 in 10.0 mi West 11.5 mph 17.3 mph N/A   Clear
2:35 AM 51.8 °F 42.8 °F 71% 29.75 in 10.0 mi West 11.5 mph - N/A   Clear
2:55 AM 51.8 °F 42.8 °F 71% 29.75 in 10.0 mi West 13.8 mph - N/A   Clear
3:14 AM 51.8 °F 42.8 °F 71% 29.75 in 10.0 mi West 12.7 mph - N/A   Clear
3:34 AM 51.8 °F 42.8 °F 71% 29.76 in 10.0 mi West 15.0 mph - N/A   Clear
3:54 AM 51.8 °F 42.8 °F 71% 29.76 in 10.0 mi West 16.1 mph 23.0 mph N/A   Clear
4:14 AM 51.8 °F 42.8 °F 71% 29.76 in 10.0 mi West 17.3 mph - N/A   Scattered Clouds
4:34 AM 51.8 °F 42.8 °F 71% 29.76 in 10.0 mi West 13.8 mph - N/A   Scattered Clouds
4:55 AM 50.0 °F 42.8 °F 76% 29.77 in 10.0 mi West 12.7 mph - N/A   Scattered Clouds
5:14 AM 51.8 °F 44.6 °F 76% 29.78 in 10.0 mi WSW 13.8 mph - N/A   Mostly Cloudy
5:34 AM 50.0 °F 42.8 °F 76% 29.78 in 10.0 mi West 13.8 mph - N/A   Scattered Clouds
5:54 AM 48.2 °F 44.6 °F 87% 29.78 in 10.0 mi West 12.7 mph - N/A   Scattered Clouds
6:14 AM 51.8 °F 44.6 °F 76% 29.79 in 10.0 mi West 16.1 mph - N/A   Overcast
6:35 AM 51.8 °F 44.6 °F 76% 29.80 in 10.0 mi West 16.1 mph 19.6 mph N/A   Overcast
6:55 AM 53.6 °F 44.6 °F 72% 29.80 in 10.0 mi West 15.0 mph 21.9 mph N/A   Overcast
7:14 AM 53.6 °F 44.6 °F 72% 29.81 in 10.0 mi West 12.7 mph - N/A   Mostly Cloudy
7:35 AM 53.6 °F 44.6 °F 72% 29.82 in 10.0 mi West 19.6 mph - N/A   Mostly Cloudy
7:54 AM 55.4 °F 44.6 °F 67% 29.82 in 10.0 mi West 23.0 mph 26.5 mph N/A   Overcast
8:14 AM 53.6 °F 44.6 °F 72% 29.83 in 10.0 mi West 18.4 mph 24.2 mph N/A   Overcast
8:35 AM 53.6 °F 44.6 °F 72% 29.83 in 10.0 mi West 17.3 mph 23.0 mph N/A   Overcast
8:54 AM 53.6 °F 44.6 °F 72% 29.84 in 10.0 mi WNW 16.1 mph 23.0 mph N/A   Overcast
9:14 AM 55.4 °F 46.4 °F 72% 29.85 in 10.0 mi WNW 15.0 mph - N/A   Mostly Cloudy
9:34 AM 55.4 °F 44.6 °F 67% 29.86 in 7.0 mi WNW 18.4 mph 24.2 mph N/A   Mostly Cloudy
9:54 AM 55.4 °F 44.6 °F 67% 29.86 in 10.0 mi WNW 15.0 mph - N/A   Overcast
10:15 AM 55.4 °F 44.6 °F 67% 29.87 in 10.0 mi WNW 13.8 mph - N/A   Overcast
10:35 AM 55.4 °F 46.4 °F 72% 29.87 in 10.0 mi NW 11.5 mph - N/A   Overcast
10:54 AM 55.4 °F 46.4 °F 72% 29.87 in 10.0 mi WNW 10.4 mph - N/A   Overcast
11:14 AM 55.4 °F 46.4 °F 72% 29.88 in 10.0 mi West 11.5 mph - N/A   Overcast
11:34 AM 55.4 °F 46.4 °F 72% 29.88 in 10.0 mi West 12.7 mph - N/A   Overcast
11:54 AM 55.4 °F 46.4 °F 72% 29.88 in 10.0 mi West 13.8 mph - N/A   Overcast
12:15 PM 53.6 °F 48.2 °F 82% 29.89 in 7.0 mi West 9.2 mph - N/A Rain Light Rain
12:34 PM 51.8 °F 48.2 °F 88% 29.90 in 5.0 mi NW 12.7 mph - 0.02 in Rain Light Rain
12:55 PM 51.8 °F 48.2 °F 88% 29.90 in 10.0 mi WNW 15.0 mph - 0.04 in Rain Light Rain
1:14 PM 53.6 °F 50.0 °F 88% 29.90 in 10.0 mi West 12.7 mph - N/A   Overcast
1:35 PM 53.6 °F 48.2 °F 82% 29.90 in 10.0 mi NW 13.8 mph 23.0 mph N/A Rain Light Rain
1:55 PM 55.4 °F 48.2 °F 77% 29.90 in 10.0 mi NW 10.4 mph - N/A   Overcast
2:14 PM 57.2 °F 48.2 °F 72% 29.90 in 10.0 mi NW 9.2 mph - N/A   Mostly Cloudy
2:34 PM 55.4 °F 46.4 °F 72% 29.91 in 10.0 mi NW 18.4 mph 21.9 mph N/A   Drizzle
2:55 PM 55.4 °F 46.4 °F 72% 29.91 in 10.0 mi NW 18.4 mph - N/A   Light Drizzle
3:14 PM 55.4 °F 44.6 °F 67% 29.92 in 10.0 mi NW 17.3 mph - N/A Rain Light Rain
3:35 PM 57.2 °F 44.6 °F 63% 29.92 in 10.0 mi NW 19.6 mph 26.5 mph N/A   Overcast
3:55 PM 57.2 °F 44.6 °F 63% 29.92 in 10.0 mi NW 20.7 mph 27.6 mph N/A   Mostly Cloudy
4:15 PM 55.4 °F 42.8 °F 63% 29.93 in 10.0 mi NW 17.3 mph 26.5 mph N/A   Mostly Cloudy
4:34 PM 55.4 °F 41.0 °F 58% 29.94 in 10.0 mi NW 18.4 mph 23.0 mph N/A   Overcast
4:55 PM 55.4 °F 41.0 °F 58% 29.94 in 10.0 mi NW 20.7 mph 26.5 mph N/A   Overcast
5:14 PM 55.4 °F 39.2 °F 54% 29.94 in 10.0 mi NW 20.7 mph 27.6 mph N/A   Overcast
5:35 PM 57.2 °F 41.0 °F 55% 29.94 in 10.0 mi NW 19.6 mph 24.2 mph N/A   Mostly Cloudy
5:55 PM 55.4 °F 39.2 °F 54% 29.94 in 10.0 mi NW 18.4 mph 23.0 mph N/A   Scattered Clouds
6:14 PM 55.4 °F 39.2 °F 54% 29.94 in 10.0 mi NW 20.7 mph 25.3 mph N/A   Mostly Cloudy
6:34 PM 55.4 °F 39.2 °F 54% 29.95 in 10.0 mi NW 19.6 mph 25.3 mph N/A   Overcast
6:55 PM 55.4 °F 39.2 °F 54% 29.95 in 10.0 mi NW 12.7 mph - N/A   Overcast
7:15 PM 53.6 °F 39.2 °F 58% 29.95 in 10.0 mi NW 16.1 mph - N/A   Overcast
7:34 PM 53.6 °F 39.2 °F 58% 29.95 in 10.0 mi WNW 15.0 mph - N/A   Overcast
7:54 PM 53.6 °F 37.4 °F 54% 29.95 in 10.0 mi WNW 17.3 mph 21.9 mph N/A   Overcast
8:14 PM 53.6 °F 39.2 °F 58% 29.96 in 10.0 mi WNW 12.7 mph - N/A   Overcast
8:34 PM 53.6 °F 39.2 °F 58% 29.96 in 10.0 mi WNW 10.4 mph - N/A   Overcast
8:55 PM 51.8 °F 39.2 °F 62% 29.97 in 10.0 mi WNW 9.2 mph - N/A   Overcast
9:14 PM 53.6 °F 37.4 °F 54% 29.97 in 10.0 mi NW 12.7 mph - N/A   Overcast
9:34 PM 51.8 °F 37.4 °F 58% 29.97 in 10.0 mi NNW 12.7 mph 23.0 mph N/A   Overcast
9:55 PM 51.8 °F 39.2 °F 62% 29.98 in 10.0 mi NNW 8.1 mph - N/A   Overcast
10:14 PM 51.8 °F 39.2 °F 62% 29.99 in 10.0 mi NW 8.1 mph - N/A   Overcast
10:35 PM 51.8 °F 41.0 °F 67% 29.99 in 10.0 mi NW 8.1 mph - N/A   Overcast
10:54 PM 51.8 °F 39.2 °F 62% 30.00 in 10.0 mi NNW 9.2 mph - N/A   Overcast
11:15 PM 50.0 °F 39.2 °F 66% 30.00 in 10.0 mi NNW 11.5 mph 16.1 mph N/A   Mostly Cloudy
11:35 PM 48.2 °F 39.2 °F 71% 30.01 in 10.0 mi NNW 11.5 mph - N/A   Mostly Cloudy
11:56 PM 48.2 °F 39.2 °F 71% 30.02 in 10.0 mi NNW 12.7 mph - N/A   Mostly Cloudy